EN

Hourly Weather Braciejowice

Today, 16 April, Friday

Time Temperature Precipitation Wind Pressure Humidity
00:00 +1°C° 0.1 mm 3 mps 750 mmHg 99%
01:00 0°C° 0.1 mm 4 mps 750 mmHg 99%
02:00 0°C° 0.4 mm 4 mps 750 mmHg 99%
03:00 +1°C° 0.4 mm 4 mps 749 mmHg 99%
04:00 +1°C° 0.4 mm 4 mps 749 mmHg 99%
05:00 +1°C° 0.7 mm 4 mps 749 mmHg 99%
06:00 +1°C° 0.7 mm 4 mps 749 mmHg 99%
07:00 +1°C° 0.7 mm 4 mps 749 mmHg 98%
08:00 +1°C° 1 mm 5 mps 749 mmHg 98%
09:00 +1°C° 1 mm 5 mps 749 mmHg 98%
10:00 +1°C° 1 mm 5 mps 749 mmHg 98%
11:00 +1°C° 0.3 mm 5 mps 749 mmHg 98%
12:00 +2°C° 0.3 mm 5 mps 749 mmHg 98%
13:00 +2°C° 0.3 mm 5 mps 749 mmHg 98%
14:00 +2°C° 0.2 mm 5 mps 749 mmHg 98%
15:00 +2°C° 0.2 mm 5 mps 749 mmHg 97%
16:00 +2°C° 0.2 mm 6 mps 749 mmHg 97%
17:00 +2°C° 0.3 mm 5 mps 750 mmHg 97%
18:00 +2°C° 0.3 mm 5 mps 750 mmHg 97%
19:00 +1°C° 0.3 mm 5 mps 750 mmHg 97%
20:00 +1°C° 0.2 mm 5 mps 750 mmHg 97%
21:00 +1°C° 0.2 mm 5 mps 750 mmHg 98%
22:00 +1°C° 0.2 mm 4 mps 750 mmHg 98%
23:00 +1°C° 0.4 mm 4 mps 750 mmHg 98%

Tomorrow, 17 April, Saturday

Time Temperature Precipitation Wind Pressure Humidity
00:00 +1°C° 0.4 mm 4 mps 750 mmHg 98%
01:00 +1°C° 0.4 mm 4 mps 750 mmHg 98%
02:00 +1°C° 0.8 mm 4 mps 750 mmHg 98%
03:00 +1°C° 0.8 mm 4 mps 750 mmHg 98%
04:00 +1°C° 0.8 mm 4 mps 750 mmHg 98%
05:00 +3°C° 0.2 mm 3 mps 750 mmHg 98%
06:00 +3°C° 0.2 mm 3 mps 751 mmHg 98%
07:00 +3°C° 0.2 mm 3 mps 751 mmHg 98%
08:00 +4°C° 0.1 mm 2 mps 751 mmHg 97%
09:00 +4°C° 0.1 mm 2 mps 751 mmHg 96%
10:00 +5°C° 0.1 mm 2 mps 752 mmHg 96%
11:00 +5°C° 0 mm 2 mps 752 mmHg 94%
12:00 +5°C° 0 mm 2 mps 752 mmHg 93%
13:00 +5°C° 0 mm 2 mps 752 mmHg 92%
14:00 +6°C° 0 mm 2 mps 752 mmHg 91%
15:00 +6°C° 0 mm 2 mps 753 mmHg 90%
16:00 +6°C° 0 mm 2 mps 753 mmHg 89%
17:00 +6°C° 0 mm 2 mps 753 mmHg 90%
18:00 +5°C° 0 mm 2 mps 753 mmHg 91%
19:00 +6°C° 0 mm 1 mps 753 mmHg 92%
20:00 +6°C° 0 mm 1 mps 753 mmHg 93%
21:00 +6°C° 0 mm 1 mps 753 mmHg 93%
22:00 +5°C° 0 mm 1 mps 753 mmHg 94%
23:00 +5°C° 0 mm 1 mps 753 mmHg 94%

Day after tomorrow, 18 April, Sunday

Time Temperature Precipitation Wind Pressure Humidity
00:00 +5°C° 0 mm 1 mps 753 mmHg 94%
01:00 +5°C° 0 mm 1 mps 753 mmHg 94%
02:00 +4°C° 0 mm 1 mps 753 mmHg 94%
03:00 +4°C° 0 mm 1 mps 753 mmHg 93%
04:00 +4°C° 0 mm 1 mps 753 mmHg 93%
05:00 +4°C° 0 mm 2 mps 753 mmHg 91%
06:00 +5°C° 0 mm 2 mps 753 mmHg 89%
07:00 +6°C° 0 mm 2 mps 753 mmHg 86%
08:00 +6°C° 0 mm 2 mps 753 mmHg 86%
09:00 +6°C° 0 mm 2 mps 752 mmHg 86%
10:00 +7°C° 0 mm 3 mps 752 mmHg 86%
11:00 +8°C° 0 mm 3 mps 752 mmHg 86%
12:00 +9°C° 0 mm 3 mps 752 mmHg 86%
13:00 +9°C° 0 mm 3 mps 752 mmHg 86%
14:00 +10°C° 0.1 mm 3 mps 751 mmHg 86%
15:00 +10°C° 0.1 mm 2 mps 751 mmHg 86%
16:00 +12°C° 0.1 mm 2 mps 751 mmHg 86%
17:00 +10°C° 0.1 mm 2 mps 751 mmHg 87%
18:00 +9°C° 0.1 mm 3 mps 751 mmHg 89%
19:00 +8°C° 0.1 mm 3 mps 751 mmHg 90%
20:00 +8°C° 0 mm 3 mps 751 mmHg 91%
21:00 +8°C° 0 mm 3 mps 751 mmHg 92%
22:00 +8°C° 0 mm 3 mps 751 mmHg 93%
23:00 +8°C° 0.1 mm 3 mps 751 mmHg 94%

19 April, Monday

Time Temperature Precipitation Wind Pressure Humidity
00:00 +8°C° 0.1 mm 3 mps 751 mmHg 94%
01:00 +7°C° 0.1 mm 3 mps 751 mmHg 94%
02:00 +7°C° 0 mm 3 mps 751 mmHg 94%
03:00 +5°C° 0 mm 3 mps 751 mmHg 95%
04:00 +4°C° 0 mm 3 mps 751 mmHg 96%
05:00 +4°C° 0 mm 3 mps 751 mmHg 91%
06:00 +5°C° 0 mm 4 mps 751 mmHg 86%
07:00 +6°C° 0 mm 4 mps 751 mmHg 81%
08:00 +7°C° 0 mm 4 mps 751 mmHg 75%
09:00 +8°C° 0 mm 4 mps 751 mmHg 68%
10:00 +11°C° 0 mm 4 mps 751 mmHg 62%
11:00 +11°C° 0 mm 4 mps 750 mmHg 62%
12:00 +11°C° 0 mm 4 mps 750 mmHg 62%
13:00 +11°C° 0 mm 3 mps 750 mmHg 61%
14:00 +11°C° 0.1 mm 3 mps 750 mmHg 64%
15:00 +10°C° 0.1 mm 3 mps 749 mmHg 67%
16:00 +10°C° 0.1 mm 3 mps 749 mmHg 69%
17:00 +9°C° 0 mm 3 mps 749 mmHg 74%
18:00 +8°C° 0 mm 2 mps 749 mmHg 79%
19:00 +7°C° 0 mm 2 mps 749 mmHg 84%
20:00 +7°C° 0.1 mm 2 mps 748 mmHg 86%
21:00 +7°C° 0.1 mm 2 mps 748 mmHg 88%
22:00 +7°C° 0.1 mm 3 mps 748 mmHg 90%
23:00 +5°C° 0.1 mm 3 mps 748 mmHg 91%

20 April, Tuesday

Time Temperature Precipitation Wind Pressure Humidity
00:00 +5°C° 0.1 mm 3 mps 747 mmHg 92%
01:00 +5°C° 0.1 mm 3 mps 747 mmHg 93%
02:00 +4°C° 0 mm 3 mps 747 mmHg 93%
03:00 +4°C° 0 mm 3 mps 747 mmHg 94%
04:00 +3°C° 0 mm 3 mps 746 mmHg 94%
05:00 +4°C° 0 mm 3 mps 746 mmHg 92%
06:00 +4°C° 0 mm 4 mps 746 mmHg 90%
07:00 +5°C° 0 mm 4 mps 746 mmHg 88%
08:00 +6°C° 0.1 mm 5 mps 746 mmHg 86%
09:00 +6°C° 0.1 mm 5 mps 745 mmHg 83%
10:00 +7°C° 0.1 mm 5 mps 745 mmHg 81%
11:00 +7°C° 0.2 mm 5 mps 745 mmHg 80%
12:00 +7°C° 0.2 mm 5 mps 745 mmHg 79%
13:00 +7°C° 0.2 mm 5 mps 745 mmHg 78%
14:00 +8°C° 0.1 mm 5 mps 744 mmHg 76%
15:00 +8°C° 0.1 mm 5 mps 744 mmHg 74%
16:00 +9°C° 0.1 mm 5 mps 744 mmHg 73%
17:00 +8°C° 0 mm 5 mps 744 mmHg 77%
18:00 +7°C° 0 mm 4 mps 744 mmHg 81%
19:00 +7°C° 0 mm 3 mps 744 mmHg 85%
20:00 +7°C° 0 mm 3 mps 744 mmHg 86%
21:00 +5°C° 0 mm 3 mps 743 mmHg 88%
22:00 +5°C° 0 mm 3 mps 743 mmHg 89%
23:00 +5°C° 0 mm 4 mps 743 mmHg 91%

21 April, Wednesday

Time Temperature Precipitation Wind Pressure Humidity
00:00 +4°C° 0 mm 4 mps 743 mmHg 93%
01:00 +3°C° 0 mm 5 mps 743 mmHg 95%
02:00 +2°C° 0 mm 5 mps 743 mmHg 93%
03:00 +2°C° 0 mm 5 mps 743 mmHg 92%
04:00 +2°C° 0 mm 5 mps 743 mmHg 91%
05:00 +3°C° 0 mm 5 mps 744 mmHg 87%
06:00 +3°C° 0 mm 6 mps 744 mmHg 83%
07:00 +4°C° 0 mm 6 mps 744 mmHg 80%
08:00 +5°C° 0 mm 6 mps 744 mmHg 74%
09:00 +6°C° 0 mm 7 mps 744 mmHg 68%
10:00 +8°C° 0 mm 7 mps 745 mmHg 62%
11:00 +8°C° 0 mm 7 mps 745 mmHg 62%
12:00 +8°C° 0 mm 7 mps 745 mmHg 61%
13:00 +8°C° 0 mm 6 mps 746 mmHg 61%
14:00 +8°C° 0 mm 6 mps 746 mmHg 62%
15:00 +8°C° 0 mm 5 mps 746 mmHg 62%
16:00 +9°C° 0 mm 5 mps 747 mmHg 62%
17:00 +8°C° 0 mm 4 mps 747 mmHg 68%
18:00 +8°C° 0 mm 3 mps 747 mmHg 75%
19:00 +7°C° 0 mm 2 mps 747 mmHg 81%
20:00 +6°C° 0 mm 2 mps 748 mmHg 83%
21:00 +5°C° 0 mm 3 mps 748 mmHg 86%
22:00 +4°C° 0 mm 3 mps 748 mmHg 88%
23:00 +4°C° 0 mm 3 mps 748 mmHg 88%
Show more

We Need Your Consent

Meteoprog and our Service Providers may store and access personal data such as cookies, device identifiers or other similar technologies on your device and process such data to personalise content and ads, as well as provide social media features and to analyse the traffic.

  • Store and/or access information on your device

    Cookies, device identifiers or other information can be stored or accessed on your device for the purposes indicated above.

  • Personalised ads and content, ad and content measurement, audience insights, and products development

    Ads and content can be personalised based on a profile. More data can be added to better personalise ads and content. Ad and content performance can be measured. Insights about the audience who saw the ads and content can be derived. Such data can be used to develop or improve user’s experience, systems and software.

By clicking ‘I Agree’ you will allow the use of indicated cookies, device identifiers, web beacons or other similar technologies. Your settings can be changed in the browser on your device.

For certain purposes, legitimate interests may be relied on, rather than consent. You can read more about this in our Privacy and Cookie Policy.